Location: Handeloh
(53.2500°N, 9.8330°E)
Time: 14:58:33
(UTC+01:00)

S-56A Canister/Altair - Pass Details

Date: 24 November 2019
Orbit: 632 x 2500 km, 38.9° (Epoch: 15 December)

Event Time Altitude Azimuth Distance (km) Brightness Sun altitude
Rises 19:50:27 0° 263° (W) 4,791 12.6 -31.7°
Reaches altitude 10° 19:55:02 10° 249° (WSW) 3,422 11.5 -32.4°
Maximum altitude 20:00:26 19° 208° (SSW) 2,340 10.1 -33.2°
Enters shadow 20:01:42 18° 194° (SSW) 2,293 9.9 -33.4°
Drops below altitude 10° 20:04:42 10° 164° (SSE) 2,606 - -33.8°
Sets 20:07:36 0° 146° (SE) 3,325 - -34.2°
